Weather History for KSMQ - July, 2012

Change the Weather History Date:

Monday, July 23, 2012

  Actual Average Record
Temperature  
Mean Temperature 76 °F -  
Max Temperature 90 °F 85 °F 101 °F (1955)
Min Temperature 64 °F 61 °F 50 °F (1977)
Cooling Degree Days 12    
Growing Degree Days 26 (Base 50)    
Moisture  
Dew Point 69 °F    
Average Humidity 88    
Maximum Humidity 100    
Minimum Humidity 51    
Precipitation  
Precipitation 0.91 in - - ()
Sea Level Pressure  
Sea Level Pressure 29.93 in    
Wind  
Wind Speed 2 mph (NNW)    
Max Wind Speed 14 mph    
Max Gust Speed 43 mph    
Visibility 5 miles    
Events Rain    
Averages and records for this station are not official NWS values.
T = Trace of Precipitation, MM = Missing Value Source: NWS Daily Summary

Daily Weather History Graph

Daily Weather History Graph

Search for Another Location

Airport or City:

Trip Planner

Search our weather history database for the weather conditions in past years. The results will help you decide how hot, cold, wet, or windy it might be!

Date:

Astronomy

Jul. 23, 2012 Rise Set
Actual Time 5:47 AM EDT 8:22 PM EDT
Civil Twilight 5:16 AM EDT 8:53 PM EDT
Nautical Twilight 4:36 AM EDT 9:32 PM EDT
Astronomical Twilight 3:52 AM EDT 10:16 PM EDT
Moon 10:37 AM EDT (7/23) 10:33 PM EDT (7/23)
Length of Visible Light 15h 37m
Length of Day
14h 34m
Waxing Crescent, 21% of the Moon is Illuminated
Jul 23
Waxing Crescent
Jul 26
First Quarter
Aug 1
Full
Aug 9
Last Quarter
Aug 17
New

Hourly Weather History & Observations

Time (EDT) Temp. Heat Index Dew Point Humidity Pressure Visibility Wind Dir Wind Speed Gust Speed Precip Events Conditions
12:53 AM 68.0 °F - 64.9 °F 90% 30.10 in 10.0 mi Calm Calm - N/A   Clear
1:53 AM 66.9 °F - 64.0 °F 90% 30.09 in 10.0 mi Calm Calm - N/A   Clear
2:53 AM 64.9 °F - 64.0 °F 97% 30.09 in 10.0 mi Calm Calm - N/A   Clear
3:53 AM 64.9 °F - 64.0 °F 97% 30.09 in 9.0 mi Calm Calm - N/A   Clear
4:53 AM 64.9 °F - 64.0 °F 97% 30.09 in 8.0 mi Calm Calm - N/A   Clear
5:53 AM 64.0 °F - 63.0 °F 96% 30.09 in 8.0 mi Calm Calm - N/A   Clear
6:53 AM 66.0 °F - 64.9 °F 96% 30.08 in 7.0 mi Calm Calm - N/A   Clear
7:53 AM 71.6 °F - 66.2 °F 83% 30.07 in 10.0 mi Calm Calm - N/A   Clear
8:53 AM 75.0 °F - 69.1 °F 82% 30.06 in 10.0 mi Variable 4.6 mph - N/A   Clear
9:53 AM 80.1 °F 83.6 °F 71.1 °F 74% 30.03 in 10.0 mi Variable 3.5 mph - N/A   Clear
10:53 AM 82.0 °F 86.3 °F 71.1 °F 69% 30.01 in 10.0 mi Variable 3.5 mph - N/A   Clear
11:53 AM 84.9 °F 89.4 °F 70.0 °F 61% 30.00 in 10.0 mi Variable 3.5 mph - N/A   Partly Cloudy
12:53 PM 88.0 °F 93.8 °F 71.1 °F 57% 29.97 in 10.0 mi Calm Calm - N/A   Partly Cloudy
1:53 PM 87.1 °F 91.3 °F 69.1 °F 55% 29.95 in 10.0 mi Variable 3.5 mph - N/A   Mostly Cloudy
2:53 PM 89.1 °F 93.7 °F 69.1 °F 52% 29.93 in 10.0 mi South 9.2 mph - 0.00 in   Scattered Clouds
3:53 PM 87.1 °F 89.9 °F 66.9 °F 51% 29.90 in 10.0 mi Variable 4.6 mph - 0.00 in   Mostly Cloudy
4:24 PM 75.2 °F - 64.4 °F 69% 29.93 in 2.0 mi NE 13.8 mph 42.6 mph 0.05 in Rain Light Rain
4:28 PM 75.2 °F - 66.2 °F 73% 29.93 in 0.8 mi Variable 5.8 mph 19.6 mph 0.23 in Rain Heavy Rain
4:33 PM 75.2 °F - 69.8 °F 83% 29.92 in 0.2 mi East 10.4 mph 21.9 mph 0.48 in Rain Heavy Rain
4:43 PM 73.4 °F - 71.6 °F 94% 29.92 in 0.8 mi Variable 4.6 mph 19.6 mph 0.61 in Rain Heavy Rain
4:50 PM 73.4 °F - 69.8 °F 88% 29.91 in 1.0 mi WNW 6.9 mph - 0.69 in Rain Heavy Rain
4:53 PM 72.0 °F - 70.0 °F 93% 29.90 in 0.8 mi Calm Calm - 0.77 in Rain Heavy Rain
5:10 PM 73.4 °F - 71.6 °F 94% 29.88 in 1.2 mi ENE 3.5 mph - 0.11 in Rain Heavy Rain
5:18 PM 73.4 °F - 71.6 °F 94% 29.89 in 3.0 mi West 3.5 mph - 0.12 in Rain Light Rain
5:53 PM 73.9 °F - 73.0 °F 97% 29.86 in 4.0 mi Calm Calm - 0.12 in   Partly Cloudy
6:53 PM 75.0 °F - 73.0 °F 94% 29.86 in 6.0 mi Calm Calm - N/A   Scattered Clouds
7:16 PM 73.4 °F - 73.4 °F 100% 29.85 in 2.0 mi Calm Calm - N/A   Partly Cloudy
7:28 PM 73.4 °F - 73.4 °F 100% 29.85 in 4.0 mi Calm Calm - N/A   Clear
7:40 PM 73.4 °F - 73.4 °F 100% 29.86 in 2.5 mi Calm Calm - N/A   Clear
7:53 PM 73.9 °F - 73.0 °F 97% 29.87 in 3.0 mi Calm Calm - 0.00 in Rain Light Rain
8:53 PM 73.9 °F - 72.0 °F 93% 29.90 in 7.0 mi North 8.1 mph - 0.02 in Rain Light Rain
9:53 PM 70.0 °F - 69.1 °F 97% 29.88 in 5.0 mi Calm Calm - 0.00 in   Clear
10:23 PM 69.8 °F - 68.0 °F 94% 29.85 in 1.8 mi Calm Calm - N/A   Clear
10:27 PM 69.8 °F - 69.8 °F 100% 29.85 in 1.0 mi Calm Calm - N/A   Mist
10:35 PM 69.8 °F - 69.8 °F 100% 29.84 in 2.0 mi Calm Calm - N/A   Clear
10:38 PM 69.8 °F - 68.0 °F 94% 29.84 in 1.2 mi Calm Calm - N/A   Partly Cloudy
10:40 PM 69.8 °F - 68.0 °F 94% 29.84 in 0.8 mi Calm Calm - N/A   Mist
10:53 PM 69.1 °F - 68.0 °F 96% 29.83 in 1.2 mi Calm Calm - N/A   Partly Cloudy
10:59 PM 69.8 °F - 68.0 °F 94% 29.83 in 3.0 mi Calm Calm - N/A   Partly Cloudy
11:16 PM 69.8 °F - 68.0 °F 94% 29.82 in 2.0 mi Calm Calm - N/A   Clear
11:25 PM 69.8 °F - 69.8 °F 100% 29.83 in 2.5 mi WNW 3.5 mph - N/A   Partly Cloudy
11:32 PM 69.8 °F - 68.0 °F 94% 29.83 in 4.0 mi WNW 3.5 mph - N/A   Partly Cloudy
11:53 PM 68.0 °F - 66.9 °F 96% 29.81 in 3.0 mi Calm Calm - N/A   Partly Cloudy